Time,TemperatureF,DewpointF,PressureIn,WindDirection,WindDirectionDegrees,WindSpeedMPH,WindSpeedGustMPH,Humidity,HourlyPrecipIn,Conditions,Clouds,dailyrainin,SolarRadiationWatts/m^2,SoftwareType,DateUTC
2013-12-30 00:14:00,49.5,36.0,29.94,NW,323,0.0,1.0,60,0.00,,,0.00,0,weatherlink.com 1.10,2013-12-30 08:14:00,
2013-12-30 00:29:00,49.6,36.0,29.94,NW,323,0.0,1.0,59,0.00,,,0.00,0,weatherlink.com 1.10,2013-12-30 08:29:00,
2013-12-30 00:44:00,49.6,36.0,29.94,NW,323,0.0,4.0,60,0.00,,,0.00,0,weatherlink.com 1.10,2013-12-30 08:44:00,
2013-12-30 00:59:00,49.3,36.0,29.94,NW,323,0.0,2.0,61,0.00,,,0.00,0,weatherlink.com 1.10,2013-12-30 08:59:00,
2013-12-30 01:14:00,49.2,36.0,29.94,NW,323,0.0,4.0,61,0.00,,,0.00,0,weatherlink.com 1.10,2013-12-30 09:14:00,
2013-12-30 01:29:00,48.7,36.0,29.93,NW,323,0.0,0.0,63,0.00,,,0.00,0,weatherlink.com 1.10,2013-12-30 09:29:00,
2013-12-30 01:44:00,48.0,37.0,29.93,NW,323,0.0,1.0,65,0.00,,,0.00,0,weatherlink.com 1.10,2013-12-30 09:44:00,
2013-12-30 01:59:00,47.8,37.0,29.93,NW,323,0.0,1.0,66,0.00,,,0.00,0,weatherlink.com 1.10,2013-12-30 09:59:00,
2013-12-30 02:29:00,46.9,36.0,29.95,NW,323,0.0,0.0,67,0.00,,,0.00,0,weatherlink.com 1.10,2013-12-30 10:29:00,
2013-12-30 02:44:00,47.4,36.0,29.95,NW,323,0.0,1.0,66,0.00,,,0.00,0,weatherlink.com 1.10,2013-12-30 10:44:00,
2013-12-30 02:59:00,47.3,37.0,29.95,NW,323,0.0,2.0,67,0.00,,,0.00,0,weatherlink.com 1.10,2013-12-30 10:59:00,
2013-12-30 03:14:00,47.5,37.0,29.95,NW,323,0.0,0.0,68,0.00,,,0.00,0,weatherlink.com 1.10,2013-12-30 11:14:00,
2013-12-30 03:29:00,46.5,37.0,29.95,NW,323,0.0,0.0,70,0.00,,,0.00,0,weatherlink.com 1.10,2013-12-30 11:29:00,
2013-12-30 03:44:00,46.7,37.0,29.95,NW,323,0.0,0.0,68,0.00,,,0.00,0,weatherlink.com 1.10,2013-12-30 11:44:00,
2013-12-30 03:59:00,47.4,37.0,29.96,NW,323,0.0,0.0,68,0.00,,,0.00,0,weatherlink.com 1.10,2013-12-30 11:59:00,
2013-12-30 04:14:00,47.2,37.0,29.96,NW,323,0.0,2.0,69,0.00,,,0.00,0,weatherlink.com 1.10,2013-12-30 12:14:00,
2013-12-30 04:29:00,47.5,37.0,29.95,NW,323,0.0,0.0,68,0.00,,,0.00,0,weatherlink.com 1.10,2013-12-30 12:29:00,
2013-12-30 04:45:00,47.5,37.0,29.95,NW,323,0.0,2.0,68,0.00,,,0.00,0,weatherlink.com 1.10,2013-12-30 12:45:00,
2013-12-30 04:59:00,46.3,37.0,29.95,NW,323,0.0,0.0,70,0.00,,,0.00,0,weatherlink.com 1.10,2013-12-30 12:59:00,
2013-12-30 05:14:00,46.9,37.0,29.95,NW,323,0.0,1.0,69,0.00,,,0.00,0,weatherlink.com 1.10,2013-12-30 13:14:00,
2013-12-30 05:29:00,46.4,38.0,29.95,NW,323,0.0,2.0,72,0.00,,,0.00,0,weatherlink.com 1.10,2013-12-30 13:29:00,
2013-12-30 05:44:00,46.1,38.0,29.95,NW,323,0.0,1.0,72,0.00,,,0.00,0,weatherlink.com 1.10,2013-12-30 13:44:00,
2013-12-30 05:59:00,46.1,38.0,29.95,NW,323,0.0,1.0,72,0.00,,,0.00,0,weatherlink.com 1.10,2013-12-30 13:59:00,
2013-12-30 06:14:00,46.0,38.0,29.96,NW,323,0.0,1.0,73,0.00,,,0.00,0,weatherlink.com 1.10,2013-12-30 14:14:00,
2013-12-30 06:29:00,45.5,38.0,29.96,NW,323,0.0,1.0,74,0.00,,,0.00,0,weatherlink.com 1.10,2013-12-30 14:29:00,
2013-12-30 06:44:00,45.1,37.0,29.97,NW,323,0.0,1.0,74,0.00,,,0.00,0,weatherlink.com 1.10,2013-12-30 14:44:00,
2013-12-30 06:59:00,45.1,38.0,29.97,NW,323,0.0,0.0,76,0.00,,,0.00,0,weatherlink.com 1.10,2013-12-30 14:59:00,
2013-12-30 07:30:00,45.8,38.0,29.98,NW,323,0.0,1.0,75,0.00,,,0.00,7,weatherlink.com 1.10,2013-12-30 15:30:00,
2013-12-30 07:45:00,46.1,39.0,29.99,NW,323,1.0,2.0,75,0.00,,,0.00,16,weatherlink.com 1.10,2013-12-30 15:45:00,
2013-12-30 08:00:00,46.5,39.0,29.99,NW,323,0.0,2.0,75,0.00,,,0.00,26,weatherlink.com 1.10,2013-12-30 16:00:00,
2013-12-30 08:15:00,47.2,39.0,29.99,NW,323,0.0,1.0,74,0.00,,,0.00,44,weatherlink.com 1.10,2013-12-30 16:15:00,
2013-12-30 08:30:00,48.5,40.0,30.00,NW,323,0.0,2.0,72,0.00,,,0.00,88,weatherlink.com 1.10,2013-12-30 16:30:00,
2013-12-30 08:45:00,50.0,41.0,29.99,NW,323,0.0,1.0,71,0.00,,,0.00,123,weatherlink.com 1.10,2013-12-30 16:45:00,
2013-12-30 09:00:00,50.6,41.0,29.99,NW,323,0.0,1.0,69,0.00,,,0.00,178,weatherlink.com 1.10,2013-12-30 17:00:00,
2013-12-30 09:15:00,51.6,40.0,30.00,North,355,0.0,2.0,66,0.00,,,0.00,207,weatherlink.com 1.10,2013-12-30 17:15:00,
2013-12-30 09:45:00,52.8,41.0,30.02,NNE,24,0.0,3.0,65,0.00,,,0.00,272,weatherlink.com 1.10,2013-12-30 17:45:00,
2013-12-30 10:00:00,52.5,42.0,30.02,NE,47,0.0,6.0,67,0.00,,,0.00,304,weatherlink.com 1.10,2013-12-30 18:00:00,
2013-12-30 10:15:00,52.8,42.0,30.02,ENE,63,3.0,6.0,66,0.00,,,0.00,323,weatherlink.com 1.10,2013-12-30 18:15:00,
2013-12-30 10:30:00,53.2,42.0,30.02,ENE,65,7.0,8.0,66,0.00,,,0.00,362,weatherlink.com 1.10,2013-12-30 18:30:00,
2013-12-30 10:45:00,54.0,43.0,30.02,East,80,3.0,7.0,67,0.00,,,0.00,385,weatherlink.com 1.10,2013-12-30 18:45:00,
2013-12-30 11:00:00,55.3,40.0,30.01,East,98,5.0,8.0,57,0.00,,,0.00,404,weatherlink.com 1.10,2013-12-30 19:00:00,
2013-12-30 11:15:00,55.7,39.0,30.00,East,96,3.0,8.0,54,0.00,,,0.00,425,weatherlink.com 1.10,2013-12-30 19:15:00,
2013-12-30 11:30:00,56.9,40.0,30.00,East,96,6.0,7.0,53,0.00,,,0.00,441,weatherlink.com 1.10,2013-12-30 19:30:00,
2013-12-30 11:45:00,58.4,40.0,30.00,ESE,111,0.0,4.0,51,0.00,,,0.00,422,weatherlink.com 1.10,2013-12-30 19:45:00,
2013-12-30 12:01:00,57.5,38.0,29.99,ESE,108,3.0,7.0,49,0.00,,,0.00,459,weatherlink.com 1.10,2013-12-30 20:01:00,
2013-12-30 12:15:00,58.4,38.0,29.99,ESE,108,1.0,5.0,47,0.00,,,0.00,443,weatherlink.com 1.10,2013-12-30 20:15:00,
2013-12-30 12:31:00,59.4,38.0,29.98,ESE,108,1.0,3.0,46,0.00,,,0.00,425,weatherlink.com 1.10,2013-12-30 20:31:00,
2013-12-30 12:46:00,59.4,38.0,29.97,ESE,108,0.0,5.0,45,0.00,,,0.00,410,weatherlink.com 1.10,2013-12-30 20:46:00,
2013-12-30 13:04:00,59.6,37.0,29.97,ESE,108,1.0,2.0,43,0.00,,,0.00,468,weatherlink.com 1.10,2013-12-30 21:04:00,
2013-12-30 13:16:00,61.3,37.0,29.97,ESE,108,0.0,2.0,41,0.00,,,0.00,450,weatherlink.com 1.10,2013-12-30 21:16:00,
2013-12-30 13:31:00,61.9,37.0,29.96,ESE,108,2.0,4.0,40,0.00,,,0.00,381,weatherlink.com 1.10,2013-12-30 21:31:00,
2013-12-30 13:46:00,62.4,38.0,29.96,ESE,108,3.0,4.0,41,0.00,,,0.00,244,weatherlink.com 1.10,2013-12-30 21:46:00,
2013-12-30 14:01:00,63.1,39.0,29.96,ESE,108,5.0,7.0,41,0.00,,,0.00,325,weatherlink.com 1.10,2013-12-30 22:01:00,
2013-12-30 14:16:00,63.3,40.0,29.96,East,79,2.0,5.0,42,0.00,,,0.00,346,weatherlink.com 1.10,2013-12-30 22:16:00,
2013-12-30 14:31:00,63.1,40.0,29.96,East,79,3.0,5.0,43,0.00,,,0.00,220,weatherlink.com 1.10,2013-12-30 22:31:00,
2013-12-30 14:46:00,61.6,40.0,29.96,East,79,1.0,5.0,45,0.00,,,0.00,98,weatherlink.com 1.10,2013-12-30 22:46:00,
2013-12-30 15:01:00,61.1,41.0,29.95,East,79,0.0,4.0,47,0.00,,,0.00,288,weatherlink.com 1.10,2013-12-30 23:01:00,
2013-12-30 15:16:00,61.1,40.0,29.95,East,79,1.0,3.0,46,0.00,,,0.00,65,weatherlink.com 1.10,2013-12-30 23:16:00,
2013-12-30 15:31:00,60.6,40.0,29.96,East,79,0.0,3.0,47,0.00,,,0.00,165,weatherlink.com 1.10,2013-12-30 23:31:00,
2013-12-30 15:46:00,61.1,41.0,29.96,East,79,1.0,2.0,48,0.00,,,0.00,151,weatherlink.com 1.10,2013-12-30 23:46:00,
2013-12-30 16:01:00,59.4,41.0,29.96,East,79,6.0,6.0,51,0.00,,,0.00,86,weatherlink.com 1.10,2013-12-31 00:01:00,
2013-12-30 16:16:00,58.8,41.0,29.96,East,79,1.0,5.0,53,0.00,,,0.00,58,weatherlink.com 1.10,2013-12-31 00:16:00,
2013-12-30 16:31:00,57.9,42.0,29.97,East,79,1.0,5.0,55,0.00,,,0.00,32,weatherlink.com 1.10,2013-12-31 00:31:00,
2013-12-30 16:46:00,57.1,42.0,29.97,East,79,3.0,4.0,58,0.00,,,0.00,21,weatherlink.com 1.10,2013-12-31 00:46:00,
2013-12-30 17:03:00,56.4,42.0,29.97,South,180,7.0,8.0,58,0.00,,,0.00,0,weatherlink.com 1.10,2013-12-31 01:03:00,
2013-12-30 17:16:00,56.2,41.0,29.96,South,188,0.0,6.0,57,0.00,,,0.00,0,weatherlink.com 1.10,2013-12-31 01:16:00,
2013-12-30 17:31:00,55.1,43.0,29.97,South,189,0.0,1.0,63,0.00,,,0.00,0,weatherlink.com 1.10,2013-12-31 01:31:00,
2013-12-30 17:46:00,53.9,43.0,29.97,South,188,0.0,1.0,67,0.00,,,0.00,0,weatherlink.com 1.10,2013-12-31 01:46:00,
2013-12-30 18:01:00,52.7,44.0,29.97,South,188,3.0,5.0,71,0.00,,,0.00,0,weatherlink.com 1.10,2013-12-31 02:01:00,
2013-12-30 18:16:00,52.4,44.0,29.98,South,190,0.0,4.0,74,0.00,,,0.00,0,weatherlink.com 1.10,2013-12-31 02:16:00,
2013-12-30 18:31:00,52.0,45.0,29.98,South,190,1.0,6.0,76,0.00,,,0.00,0,weatherlink.com 1.10,2013-12-31 02:31:00,
2013-12-30 18:46:00,51.7,45.0,29.98,South,190,0.0,3.0,78,0.00,,,0.00,0,weatherlink.com 1.10,2013-12-31 02:46:00,
2013-12-30 19:01:00,51.5,45.0,29.98,South,190,0.0,1.0,79,0.00,,,0.00,0,weatherlink.com 1.10,2013-12-31 03:01:00,
2013-12-30 19:18:00,51.0,46.0,29.99,SSW,198,6.0,7.0,82,0.00,,,0.00,0,weatherlink.com 1.10,2013-12-31 03:18:00,
2013-12-30 19:31:00,50.7,46.0,29.99,SSW,199,1.0,5.0,83,0.00,,,0.00,0,weatherlink.com 1.10,2013-12-31 03:31:00,
2013-12-30 19:46:00,50.5,46.0,30.00,SSW,199,5.0,6.0,85,0.00,,,0.00,0,weatherlink.com 1.10,2013-12-31 03:46:00,
2013-12-30 20:01:00,50.1,46.0,30.00,SSW,201,0.0,4.0,86,0.00,,,0.00,0,weatherlink.com 1.10,2013-12-31 04:01:00,
2013-12-30 20:16:00,49.8,46.0,30.00,SSW,201,3.0,5.0,86,0.00,,,0.00,0,weatherlink.com 1.10,2013-12-31 04:16:00,
2013-12-30 20:31:00,49.8,46.0,30.00,WNW,285,0.0,9.0,87,0.00,,,0.00,0,weatherlink.com 1.10,2013-12-31 04:31:00,
2013-12-30 20:46:00,49.5,46.0,30.00,WNW,285,0.0,4.0,87,0.00,,,0.00,0,weatherlink.com 1.10,2013-12-31 04:46:00,
2013-12-30 21:01:00,49.4,46.0,30.00,WNW,285,0.0,3.0,87,0.00,,,0.00,0,weatherlink.com 1.10,2013-12-31 05:01:00,
2013-12-30 21:16:00,49.4,46.0,30.00,WNW,284,6.0,9.0,88,0.00,,,0.00,0,weatherlink.com 1.10,2013-12-31 05:16:00,
2013-12-30 21:31:00,49.1,46.0,30.00,WNW,284,3.0,4.0,88,0.00,,,0.00,0,weatherlink.com 1.10,2013-12-31 05:31:00,
2013-12-30 21:46:00,49.0,45.0,30.00,WNW,284,0.0,6.0,87,0.00,,,0.00,0,weatherlink.com 1.10,2013-12-31 05:46:00,
2013-12-30 22:01:00,48.5,45.0,30.01,WNW,284,0.0,1.0,87,0.00,,,0.00,0,weatherlink.com 1.10,2013-12-31 06:01:00,
2013-12-30 22:16:00,47.6,44.0,30.01,WNW,284,0.0,0.0,86,0.00,,,0.00,0,weatherlink.com 1.10,2013-12-31 06:16:00,
2013-12-30 22:31:00,47.6,44.0,30.01,WNW,284,0.0,0.0,87,0.00,,,0.00,0,weatherlink.com 1.10,2013-12-31 06:31:00,
2013-12-30 22:46:00,47.2,44.0,30.01,WNW,284,0.0,0.0,88,0.00,,,0.00,0,weatherlink.com 1.10,2013-12-31 06:46:00,
2013-12-30 23:01:00,47.4,44.0,30.00,WNW,284,0.0,0.0,88,0.00,,,0.00,0,weatherlink.com 1.10,2013-12-31 07:01:00,
2013-12-30 23:16:00,47.1,44.0,30.00,WNW,284,0.0,1.0,88,0.00,,,0.00,0,weatherlink.com 1.10,2013-12-31 07:16:00,
2013-12-30 23:31:00,47.3,44.0,30.00,WNW,284,0.0,3.0,87,0.00,,,0.00,0,weatherlink.com 1.10,2013-12-31 07:31:00,
2013-12-30 23:46:00,46.4,43.0,30.00,WNW,284,0.0,1.0,88,0.00,,,0.00,0,weatherlink.com 1.10,2013-12-31 07:46:00,